Regional Weather Roundup
Issued by NWS

Home | Current Version | Previous Version | Graphics & Text | Print | Product List | Glossary On
Versions: 1 2 3 4 5 6 7 8 9 10 11 12 13 14 15 16 17 18 19 20 21 22 23 24 25 26 27 28 29 30 31 32 33 34 35 36 37 38 39 40 41 42 43 44 45 46 47 48 49 50
000
ASUS44 KMEG 291510
RWRTN
TENNESSEE HOURLY STATE WEATHER ROUNDUP
NATIONAL WEATHER SERVICE MEMPHIS TN
1000 AM CDT SAT APR 29 2017

TNZ002-004-019-021-049-052-054-088>092-291600-
WEST TENNESSEE

CITY           SKY/WX    TMP DP  RH WIND       PRES   REMARKS
MEMPHIS INTL   CLOUDY    79  70  74 S18G25    29.89R
NWS MEMPHIS      N/A     79 N/A N/A MISG        N/A
JACKSON        CLOUDY    79  69  71 SW14      29.95R
DYERSBURG      CLOUDY    78  68  71 S9        29.95R
SOMERVILLE     CLOUDY    79  70  73 S14G20    29.92R
UNION CITY     PTSUNNY   77  70  78 S6G14     29.96R
BOLIVAR        PTSUNNY   79  68  69 S14       29.93R
HUNTINGDON     CLOUDY    79  70  73 S12       29.97R
LEXINGTON      CLOUDY    77  68  73 S10       29.98R
SAVANNAH       PTSUNNY   77  70  78 S9G20     29.97R
$$

TNZ008-025-027-028-033-062-065-066-291600-
NORTH MIDDLE TENNESSEE

CITY           SKY/WX    TMP DP  RH WIND       PRES   REMARKS
NASHVILLE      PTSUNNY   80  68  66 S8        30.02S
PORTLAND       MOSUNNY   79  68  69 S13G18    30.02S
CLARKSVILLE    PTSUNNY   79  67  66 S10       30.00S
SMYRNA         PTSUNNY   79  69  71 S12G20    30.02F
COOKEVILLE     SUNNY     81  68  65 S10       30.05F
GALLATIN       SUNNY     81  68  65 VRB6G13   30.04F
CROSSVILLE     CLOUDY    77  63  61 S10G25    30.14R
$$

TNZ061-075-076-078-094-096-097-291600-
SOUTH MIDDLE TENNESSEE

CITY           SKY/WX    TMP DP  RH WIND       PRES   REMARKS
FAYETTEVILLE   SUNNY     81  68  65 S17G25    30.04S
TULLAHOMA      SUNNY     81  64  57 S13       30.06S
WINCHESTER     SUNNY     82  66  57 S9        30.07S
MCMINNVILLE    SUNNY     82  66  57 S8        30.06S
COLUMBIA       SUNNY     81  81 100 S10       29.99R HX  91
SHELBYVILLE    SUNNY     81  70  69 S10       30.04S
$$

TNZ017-018-042-046-047-291600-
NORTHEAST TENNESSEE

CITY           SKY/WX    TMP DP  RH WIND       PRES   REMARKS
TRI CITIES     PTSUNNY   79  66  64 CALM      30.16S
ELIZABETHTON   MOSUNNY   81  63  54 NE5       30.15F
$$

TNZ012-013-036-069-073-074-291600-
CENTRAL EAST TENNESSEE

CITY           SKY/WX    TMP DP  RH WIND       PRES   REMARKS
KNOXVILLE      CLOUDY    79  65  62 CALM      30.11R
OAK RIDGE      MOSUNNY   82  66  58 VRB5      30.13R
DOWNTOWN KNOXV SUNNY     79  66  65 CALM      30.12R
GATLINBURG     SUNNY     75  64  69 VRB5      30.11S
MORRISTOWN     SUNNY     79  66  65 CALM      30.13S
JACKSBORO      SUNNY     81  66  61 SW15      30.15R
$$

TNZ083-085-099-291600-
SOUTHEAST TENNESSEE

CITY           SKY/WX    TMP DP  RH WIND       PRES   REMARKS
CHATTANOOGA    PTSUNNY   80  67  64 S14G22    30.11R
$$

SKY/WX REPORTED AS FAIR MEANS FEW OR NO CLOUDS BELOW
12 THOUSAND FEET.




USA.gov is the U.S. government's official web portal to all federal, state and local government web resources and services.